Location: Hylvaty SDH
(49.9612°N, 16.4057°E)
Time: 19:04:15
(UTC+02:00)

Transit 2A - All Passes

Search period start: 09 August 2020 00:00
Search period end: 19 August 2020 00:00
Orbit: 591 x 967 km, 66.7° (Epoch: 08 August)

Date Brightness Start Highest point End Pass type
(mag) Time Alt. Az. Time Alt. Az. Time Alt. Az.
09 Aug - 01:45:44 10° NW 01:49:48 17° N 01:53:53 10° NE visible
09 Aug - 03:30:13 10° NNW 03:35:22 25° NNE 03:40:27 10° E visible
09 Aug - 05:13:28 10° NW 05:19:52 65° NE 05:25:58 10° SE daylight
09 Aug - 06:57:19 10° NW 07:02:47 31° WSW 07:08:01 10° S daylight
09 Aug - 19:58:54 10° SSE 20:03:07 21° ESE 20:07:34 10° ENE daylight
09 Aug - 21:39:40 10° SW 21:45:35 87° NW 21:51:59 10° NE visible
09 Aug - 23:24:28 10° W 23:29:45 29° NNW 23:35:15 10° NNE visible
10 Aug - 01:11:03 10° NW 01:15:09 18° N 01:19:18 10° NE visible
10 Aug - 02:55:58 10° NNW 03:00:49 22° NNE 03:05:37 10° ENE visible
10 Aug - 04:39:19 10° NNW 04:45:35 52° NE 04:51:35 10° ESE visible
10 Aug - 06:22:54 10° NW 06:28:49 42° WSW 06:34:26 10° S daylight
10 Aug - 19:26:07 10° SE 19:29:18 15° E 19:32:36 10° ENE daylight
10 Aug - 21:05:35 10° SSW 21:11:26 73° ESE 21:17:45 10° NE visible
10 Aug - 22:49:47 10° W 22:55:17 35° NW 23:01:05 10° NNE visible
11 Aug - 00:36:16 10° NW 00:40:31 18° N 00:44:49 10° NNE visible
11 Aug - 02:21:40 10° NNW 02:26:14 20° NNE 02:30:45 10° ENE visible
11 Aug - 04:05:10 10° NNW 04:11:14 42° NE 04:17:04 10° ESE visible
11 Aug - 05:48:34 10° NW 05:54:48 56° WSW 06:00:40 10° SSE daylight
11 Aug - 07:35:13 10° W 07:36:41 11° W 07:38:06 10° WSW daylight
11 Aug - 18:54:56 10° ESE 18:55:32 10° E 18:56:09 10° E daylight
11 Aug - 20:31:39 10° SSW 20:37:21 55° ESE 20:43:30 10° NE daylight
11 Aug - 22:15:11 10° WSW 22:20:53 42° NW 22:26:56 10° NNE visible
12 Aug - 00:01:26 10° WNW 00:05:54 20° NNW 00:10:27 10° NNE visible
12 Aug - 01:47:18 10° NNW 01:51:37 18° N 01:55:55 10° NE visible
12 Aug - 03:31:01 10° NNW 03:36:51 35° NE 03:42:28 10° E visible
12 Aug - 05:14:19 10° NW 05:20:42 74° WSW 05:26:44 10° SSE daylight
12 Aug - 06:59:21 10° WNW 07:02:54 16° WSW 07:06:21 10° SW daylight
12 Aug - 19:57:54 10° S 20:03:20 41° ESE 20:09:10 10° NE daylight
12 Aug - 21:40:41 10° WSW 21:46:32 52° NW 21:52:47 10° NNE visible
12 Aug - 23:26:35 10° WNW 23:31:19 22° NNW 23:36:09 10° NNE visible
13 Aug - 01:12:50 10° NW 01:16:59 18° N 01:21:08 10° NE visible
13 Aug - 02:56:51 10° NNW 03:02:24 29° NNE 03:07:46 10° E visible
13 Aug - 04:40:06 10° NW 04:46:34 87° ENE 04:52:38 10° SE visible
13 Aug - 06:24:27 10° WNW 06:29:04 22° WSW 06:33:30 10° SSW daylight
13 Aug - 19:24:20 10° S 19:29:23 30° ESE 19:34:45 10° NE daylight
13 Aug - 21:06:18 10° SW 21:12:15 66° NW 21:18:37 10° NE visible
13 Aug - 22:51:45 10° WNW 22:56:45 25° NNW 23:01:55 10° NNE visible
14 Aug - 00:38:15 10° NW 00:42:20 17° N 00:46:26 10° NE visible
14 Aug - 02:22:40 10° NNW 02:27:53 25° NNE 02:33:00 10° E visible
14 Aug - 04:05:56 10° NW 04:12:20 68° NE 04:18:24 10° SE visible
14 Aug - 05:49:50 10° NW 05:55:10 29° WSW 06:00:15 10° SSW daylight
14 Aug - 18:51:03 10° SSE 18:55:30 23° ESE 19:00:10 10° ENE daylight
14 Aug - 20:32:04 10° SW 20:38:02 83° NW 20:44:27 10° NE daylight
14 Aug - 22:16:59 10° W 22:22:15 28° NNW 22:27:43 10° NNE visible
15 Aug - 00:03:34 10° NW 00:07:41 17° N 00:11:50 10° NE visible
15 Aug - 01:48:26 10° NNW 01:53:21 22° NNE 01:58:10 10° ENE visible
15 Aug - 03:31:46 10° NNW 03:38:04 54° NE 03:44:02 10° ESE visible
15 Aug - 05:15:24 10° NW 05:21:14 39° WSW 05:26:43 10° S daylight
15 Aug - 18:18:08 10° SE 18:21:39 16° ESE 18:25:18 10° ENE daylight
15 Aug - 19:57:56 10° SSW 20:03:52 77° ESE 20:10:15 10° NE daylight
15 Aug - 21:42:17 10° W 21:47:47 33° NW 21:53:32 10° NNE visible
15 Aug - 23:28:48 10° NW 23:33:03 18° N 23:37:20 10° NNE visible
16 Aug - 01:14:09 10° NNW 01:18:46 20° NNE 01:23:19 10° ENE visible
16 Aug - 02:57:38 10° NNW 03:03:44 44° NE 03:09:33 10° ESE visible
16 Aug - 04:41:04 10° NW 04:47:13 53° WSW 04:52:59 10° SSE visible
16 Aug - 17:46:08 10° ESE 17:47:52 11° E 17:49:38 10° E daylight
16 Aug - 19:23:58 10° SSW 19:29:46 58° ESE 19:35:59 10° NE daylight
16 Aug - 21:07:40 10° WSW 21:13:22 40° NW 21:19:23 10° NNE visible
16 Aug - 22:53:59 10° WNW 22:58:26 19° NNW 23:02:56 10° NNE visible
17 Aug - 00:39:47 10° NNW 00:44:09 19° NNE 00:48:29 10° NE visible
17 Aug - 02:23:28 10° NNW 02:29:20 36° NE 02:34:58 10° ESE visible
17 Aug - 04:06:48 10° NW 04:13:09 70° WSW 04:19:05 10° SSE visible
17 Aug - 05:52:04 10° WNW 05:55:15 14° W 05:58:20 10° SW daylight
17 Aug - 18:50:10 10° S 18:55:44 44° ESE 19:01:41 10° NE daylight
17 Aug - 20:33:08 10° WSW 20:39:01 50° NW 20:45:14 10° NNE visible
17 Aug - 22:19:08 10° WNW 22:23:50 21° NNW 22:28:38 10° NNE visible
18 Aug - 00:05:20 10° NW 00:09:31 18° N 00:13:41 10° NE visible
18 Aug - 01:49:18 10° NNW 01:54:54 30° NNE 02:00:18 10° E visible
18 Aug - 03:32:34 10° NW 03:39:00 89° SW 03:45:01 10° SE visible
18 Aug - 05:17:02 10° WNW 05:21:26 20° WSW 05:25:38 10° SSW daylight
18 Aug - 18:16:35 10° S 18:21:45 33° ESE 18:27:17 10° NE daylight
18 Aug - 19:58:44 10° SW 20:04:43 63° NW 20:11:05 10° NNE daylight
18 Aug - 21:44:18 10° WNW 21:49:16 24° NNW 21:54:22 10° NNE visible
18 Aug - 23:30:47 10° NW 23:34:52 17° N 23:38:58 10° NE visible
